Temperature
31 32 32 32 32 32 32 31 31 31 31 31 31 30 30 28 27 27 26 25 24 24 23 22 21 21 21 20 20 20 19 19 19 19 19 19 19 19 19 19 18 18 18 18
31 32 32 32 32 31 31 31 31 31 31 30 30 30 30 29 28 27 27 26 25 24 24 22 22 21 21 21 20 20 20 19 19 19 19 19 19 19 19 19 18 19 18 18
31 32 32 31 31 31 31 31 31 31 31 30 30 30 30 29 28 27 26 26 26 25 24 23 22 22 21 21 20 20 20 20 20 19 19 19 19 19 19 19 19 19 18 18
32 32 32 31 32 32 31 32 31 31 31 31 30 30 30 30 29 28 27 26 26 25 24 23 22 22 22 21 21 20 20 20 20 20 19 19 19 19 19 19 19 18 18 18
32 32 31 31 32 32 31 31 31 31 31 31 31 31 31 30 29 29 28 27 26 26 25 24 23 22 22 21 21 21 20 20 20 20 20 19 19 19 19 19 19 19 18 18
32 32 32 32 32 32 31 31 31 31 31 30 30 30 30 31 30 30 29 27 26 25 25 24 23 22 22 21 21 21 20 20 20 20 19 19 19 19 19 19 19 19 19 18
31 32 32 32 31 31 31 31 30 30 30 30 30 30 30 31 30 30 29 27 26 25 25 24 23 22 22 21 21 21 20 20 20 20 19 19 19 19 19 19 18 18 18 18
30 31 32 32 31 31 31 31 30 29 30 31 30 30 31 31 30 29 28 27 26 26 25 24 23 23 22 21 21 21 20 20 20 20 20 19 19 19 18 18 18 18 18 18
31 31 32 31 32 32 31 31 32 31 30 30 31 30 31 30 30 29 29 28 27 26 25 24 23 23 22 22 21 21 20 20 20 20 19 19 19 19 19 18 18 18 18 18
31 30 31 31 31 31 31 32 31 31 29 29 30 30 30 30 30 29 29 28 27 26 25 24 23 23 22 22 21 21 20 20 20 19 19 19 19 19 19 18 18 18 18 18
31 30 30 30 30 31 30 30 30 31 30 29 29 30 31 30 30 29 29 28 27 26 25 24 23 23 22 22 21 21 20 20 20 19 19 19 19 19 19 18 18 18 18 18
30 30 30 30 31 31 31 31 30 30 29 29 30 30 31 30 30 29 28 27 26 25 25 24 23 23 22 22 21 21 20 20 20 19 19 19 19 18 18 18 18 18 18 18
29 29 28 29 29 30 30 30 30 31 30 30 30 30 30 30 29 28 27 26 25 24 24 24 23 22 22 21 21 20 20 20 20 19 19 19 19 18 18 18 18 18 18 18
28 29 29 29 29 30 29 30 30 30 30 30 30 30 30 29 29 28 27 26 25 24 23 23 23 22 21 21 20 20 20 19 19 19 19 19 19 18 18 18 18 18 18 17
28 28 29 29 30 30 30 29 29 29 30 30 30 30 30 29 28 27 26 25 24 23 23 22 22 21 21 20 20 20 20 19 19 19 19 18 18 18 18 18 18 18 17 17
27 27 28 28 29 29 29 29 29 29 29 29 29 29 30 29 27 26 26 25 24 23 23 22 22 21 20 20 20 19 19 19 19 19 18 18 18 18 18 18 17 17 17 17
27 26 26 27 28 28 28 29 29 29 29 29 29 29 29 28 27 26 25 25 24 23 22 22 21 21 20 20 20 19 19 19 19 19 18 18 18 18 18 17 17 17 17 16
25 25 26 27 26 26 28 29 29 28 29 29 28 28 28 27 26 25 24 24 23 22 22 21 21 20 20 20 20 19 19 19 18 18 18 18 17 17 17 17 17 16 16 16
25 25 26 26 26 27 28 28 28 27 27 28 28 27 26 26 25 25 24 23 22 21 21 20 20 20 19 19 19 19 18 18 18 18 17 17 17 17 17 16 16 16 16 16
24 24 25 25 25 25 27 28 27 27 26 27 26 26 26 25 27 26 23 22 21 21 20 20 20 19 19 18 18 18 18 18 17 17 17 17 17 17 16 16 16 16 16 15
23 23 24 25 25 26 26 26 26 25 26 25 25 25 24 25 25 23 22 21 20 20 19 19 19 18 18 18 18 18 18 17 17 17 17 17 17 16 16 16 16 16 15 15
24 24 24 24 24 25 25 25 25 25 24 24 23 23 23 23 22 21 20 20 19 19 18 18 18 18 18 18 18 17 17 17 17 16 16 16 16 16 16 16 15 15 15 15
24 24 25 24 25 23 23 23 23 22 22 22 22 22 21 21 21 20 19 19 18 18 17 17 17 17 17 17 17 17 17 17 16 16 16 16 15 15 15 15 15 15 15 15
23 22 23 23 24 23 22 22 21 21 21 21 21 21 21 20 20 19 19 18 18 17 17 17 17 17 17 17 17 17 17 16 16 16 15 15 15 15 15 15 14 14 14 14
22 21 22 22 22 22 21 21 20 20 20 20 20 20 20 20 19 19 18 18 17 17 16 16 16 16 16 16 16 16 16 16 15 15 15 15 15 14 14 14 14 14 14 14
21 21 21 22 21 21 21 20 20 20 19 19 19 19 19 19 19 18 18 17 17 16 16 16 16 16 16 16 16 16 16 15 15 15 15 15 15 14 14 14 14 14 13 13
Wind_Speed
7 8 6 3 3 4 4 3 2 1 0 4 4 3 4 9 10 10 10 10 11 11 11 11 11 11 10 10 10 10 10 9 8 6 6 6 5 5 4 4 4 4 4 4
8 9 5 3 4 5 6 5 3 1 0 3 4 4 4 8 10 9 10 11 11 11 11 11 11 12 12 11 11 10 10 10 9 7 6 5 4 4 4 3 3 4 4 4
11 5 3 6 6 7 6 5 4 3 1 4 4 5 5 7 8 8 9 10 11 11 11 12 12 12 12 12 11 10 10 10 10 8 7 5 4 5 5 4 3 3 4 4
9 6 6 8 7 7 6 3 4 5 6 3 4 4 4 5 7 8 10 11 11 11 11 11 12 12 11 11 11 11 10 10 9 9 8 8 7 6 5 4 3 3 3 3
8 7 8 9 7 7 4 3 5 7 7 7 5 6 1 4 5 6 8 10 11 10 11 11 11 11 10 10 9 9 9 9 9 9 9 8 8 6 4 4 3 3 2 2
9 7 7 7 5 5 4 5 6 8 8 7 4 6 2 1 2 3 6 8 9 9 9 9 10 10 9 9 9 9 9 9 9 9 8 8 7 6 5 4 3 3 2 2
11 10 8 6 7 7 8 8 6 7 7 4 2 6 2 1 1 2 4 7 8 9 10 10 11 10 10 10 10 9 9 9 9 9 8 8 7 6 6 5 4 4 3 2
12 11 10 8 9 7 9 10 8 7 6 4 5 5 2 1 1 2 3 6 7 8 9 10 10 11 10 11 10 10 10 9 9 9 8 7 6 6 5 5 3 3 3 2
9 9 6 6 6 9 8 9 8 9 10 9 5 5 4 3 3 3 4 5 7 7 8 9 9 10 11 10 10 10 10 9 8 7 7 6 6 5 5 4 4 3 3 2
8 8 7 6 7 6 8 7 7 9 8 9 8 7 4 4 4 3 4 4 5 6 7 8 8 9 10 10 10 10 10 10 9 8 7 6 6 6 5 5 5 4 3 2
10 10 8 8 9 9 8 9 9 8 9 10 9 5 1 3 3 4 4 4 5 6 6 6 7 7 9 9 9 9 10 9 9 8 7 6 6 7 6 6 5 4 4 3
9 9 10 10 6 6 9 10 11 10 9 10 11 6 1 2 2 3 3 3 4 4 5 5 6 7 8 9 9 9 9 9 9 8 7 7 7 7 7 6 5 5 5 4
7 8 10 11 10 9 9 10 11 11 10 11 12 6 3 2 2 2 2 2 3 4 4 5 6 6 7 8 9 9 9 9 9 8 8 7 7 7 6 6 5 5 5 5
6 11 13 13 9 7 10 11 12 12 12 12 12 10 5 4 3 3 3 3 3 4 5 5 5 5 6 7 8 8 8 8 8 8 8 7 7 6 6 5 5 5 4 5
7 12 13 13 10 9 11 12 12 14 14 13 11 10 8 6 4 4 4 4 4 4 5 5 5 5 6 7 7 7 7 7 8 8 8 7 7 6 5 5 5 4 4 5
7 10 11 13 12 12 13 13 14 14 14 14 13 12 7 5 4 4 5 5 5 5 5 5 6 6 6 7 7 8 8 8 8 8 8 7 7 6 6 5 5 4 4 4
7 9 10 14 12 12 15 13 13 13 12 12 13 9 4 5 5 5 5 5 5 5 4 5 5 6 6 7 7 8 8 8 8 8 8 8 7 7 6 6 5 5 5 5
9 10 9 11 10 15 10 6 9 11 12 10 9 6 5 5 5 5 4 4 4 4 3 4 4 5 5 6 7 7 7 8 8 8 8 8 8 7 7 6 6 5 5 4
10 9 9 11 14 14 8 5 7 10 11 8 8 7 5 4 5 5 2 3 3 3 3 3 3 3 4 4 5 6 7 8 8 8 8 8 8 7 7 6 6 5 4 4
8 9 10 11 13 14 8 3 4 8 11 5 5 6 5 5 7 3 0 1 1 2 1 2 2 2 3 4 5 6 7 7 8 8 8 8 8 7 7 6 6 5 4 4
9 9 12 13 13 11 2 1 4 10 6 0 3 3 5 5 4 2 1 0 1 0 0 1 1 2 2 3 4 5 5 6 7 7 7 7 7 7 7 6 5 5 5 4
9 9 10 11 13 9 2 4 6 4 3 1 2 3 3 3 1 1 1 1 1 1 1 1 1 1 2 3 3 4 5 4 5 5 6 6 6 6 5 6 5 5 5 5
8 7 7 7 6 0 2 3 2 3 3 2 2 3 3 2 1 0 0 1 1 1 1 1 1 1 2 3 3 4 4 4 5 5 6 6 6 5 5 5 5 5 4 5
5 4 6 7 6 4 4 4 4 4 4 3 3 3 3 3 2 2 1 1 1 1 1 1 2 2 2 3 3 3 3 4 5 5 5 5 5 5 4 4 4 4 4 4
5 5 7 9 7 6 6 6 5 4 4 3 3 3 3 4 3 2 1 1 0 0 1 1 2 2 2 2 2 2 3 4 5 5 4 5 5 4 4 3 2 3 2 2
7 7 8 8 6 7 6 5 5 4 4 3 2 3 3 4 3 3 2 1 0 1 1 1 2 2 2 2 2 2 2 4 5 4 4 4 4 4 4 3 2 3 1 3
Wind_Direction
204 224 228 232 268 292 279 271 286 14 100 253 245 239 185 182 195 197 198 198 200 202 196 195 198 200 199 198 200 202 204 197 200 204 208 206 212 220 222 226 225 235 241 236
215 226 230 247 257 250 249 253 251 209 63 262 265 251 211 194 204 208 205 204 204 200 194 193 196 198 199 196 198 200 205 203 204 203 211 215 225 230 232 245 239 243 238 239
232 232 211 235 239 239 242 260 282 294 263 221 259 225 200 196 205 213 216 212 207 202 196 192 195 199 199 197 198 203 203 204 209 206 210 211 213 236 233 236 235 246 245 244
236 231 222 235 237 246 246 254 264 263 264 267 255 275 184 194 203 210 214 213 211 205 204 199 196 199 200 199 197 201 201 203 205 206 214 216 221 228 233 234 232 232 236 247
224 220 229 242 246 251 270 254 254 260 264 269 248 275 177 181 214 209 206 208 207 204 203 201 200 199 199 196 195 194 196 200 204 210 213 219 228 231 233 227 221 239 226 236
242 235 243 251 250 232 214 224 229 239 249 252 256 272 265 159 236 214 191 191 197 198 201 202 198 194 194 192 192 189 188 194 198 205 211 216 225 223 223 224 221 225 218 219
223 222 218 226 223 205 220 240 246 240 237 247 205 260 274 43 279 230 196 183 187 193 195 195 193 189 188 188 189 187 185 192 195 199 205 207 214 214 217 226 220 229 233 225
221 217 208 212 234 236 231 250 263 274 276 266 216 252 250 144 212 208 193 180 181 187 187 190 190 189 187 188 189 190 188 190 192 195 198 198 202 211 213 217 228 222 241 248
230 224 191 209 233 246 236 244 268 271 272 273 257 244 225 197 194 184 181 178 182 185 185 186 186 188 189 189 188 189 186 187 187 186 185 189 196 209 210 207 219 224 225 228
241 240 212 200 212 234 253 251 251 258 267 270 260 249 246 213 219 205 203 196 192 186 183 181 182 183 184 186 185 184 182 184 183 180 188 187 195 206 211 216 215 222 222 226
240 237 223 212 226 228 218 230 244 256 263 270 273 266 286 215 222 219 213 204 198 192 185 180 178 179 179 179 179 180 180 182 184 185 190 194 196 202 205 212 216 216 219 216
229 240 238 230 228 250 243 241 236 248 252 259 273 268 129 218 230 225 218 196 181 184 179 174 174 176 177 179 180 181 183 184 185 185 189 196 200 202 204 206 212 212 212 215
214 235 234 228 218 215 230 236 241 251 253 255 262 259 146 171 214 220 213 202 178 176 175 170 173 180 183 184 184 184 187 188 186 184 189 193 200 201 204 208 209 209 207 212
228 236 243 249 251 232 229 231 235 244 252 255 259 267 247 242 245 243 229 214 195 185 187 186 180 184 189 190 189 191 192 189 188 188 191 194 201 202 200 201 204 208 209 212
230 239 242 253 259 255 251 247 237 240 254 264 269 266 262 260 256 248 239 229 209 203 203 201 195 188 193 194 192 192 190 186 185 189 194 195 197 198 200 200 204 208 213 214
229 243 242 246 247 251 254 251 243 242 249 256 262 265 272 268 252 245 240 236 230 224 217 212 209 202 199 198 195 192 190 186 184 188 192 191 193 195 197 200 202 206 209 216
219 229 240 247 239 246 247 243 241 243 248 255 258 265 267 260 253 252 249 245 240 236 234 227 222 214 205 201 197 195 191 187 187 188 189 190 192 193 196 200 197 203 207 209
226 231 237 248 239 245 252 238 242 247 249 252 259 262 262 271 261 253 245 246 248 252 247 237 228 217 207 198 192 192 187 186 189 189 189 191 193 193 194 197 199 203 206 206
222 221 236 240 242 246 238 228 231 241 247 248 254 254 257 266 245 224 235 246 252 255 247 240 236 217 200 193 187 187 190 189 192 193 193 193 193 193 194 196 197 200 202 207
201 214 232 237 247 250 248 217 241 244 243 238 243 246 248 246 252 245 103 274 271 274 251 222 220 207 188 187 187 190 193 195 200 199 195 192 192 193 195 196 199 199 203 210
195 210 227 236 243 249 244 181 215 236 258 225 236 243 244 245 290 349 58 359 331 3 128 155 189 194 179 176 181 195 198 204 207 201 193 190 191 194 192 190 193 195 201 202
220 219 222 234 241 242 123 184 229 275 341 307 261 255 257 273 331 41 86 101 75 73 89 137 172 191 172 166 175 193 203 205 200 192 190 189 190 196 186 185 191 195 197 198
231 242 238 239 246 359 181 239 279 307 295 291 275 272 251 241 229 188 150 92 92 109 124 150 168 184 187 184 192 203 202 198 195 194 190 186 185 190 187 190 192 196 202 215
227 260 247 244 241 240 233 250 265 274 276 288 283 264 237 225 220 222 193 124 104 103 161 187 207 204 198 193 202 210 195 188 191 192 186 183 186 189 187 197 200 206 216 230
248 232 239 243 252 249 241 250 254 258 260 261 256 237 220 216 215 205 190 185 215 219 228 214 217 209 205 202 208 207 190 186 191 194 192 191 193 192 190 198 208 222 229 238
237 236 240 251 253 259 257 259 260 258 252 243 235 218 208 209 202 191 186 184 210 287 266 243 225 207 203 207 207 196 190 191 194 196 204 206 202 192 195 191 187 84 152 120
Height
1508 1506 1504 1502 1502 1503 1504 1506 1507 1505 1504 1506 1506 1507 1509 1514 1517 1519 1521 1524 1526 1529 1531 1534 1536 1538 1540 1541 1542 1544 1546 1547 1548 1550 1551 1553 1554 1554 1555 1555 1555 1555 1555 1555
1505 1503 1500 1501 1502 1503 1504 1506 1505 1504 1504 1506 1505 1506 1505 1510 1513 1515 1518 1521 1523 1526 1529 1531 1533 1535 1537 1539 1540 1542 1544 1546 1547 1548 1549 1551 1552 1553 1553 1554 1553 1553 1553 1553
1502 1498 1500 1502 1502 1504 1503 1503 1503 1505 1504 1504 1506 1506 1505 1506 1511 1514 1516 1517 1520 1522 1525 1528 1530 1532 1534 1536 1538 1540 1542 1543 1545 1546 1548 1549 1550 1550 1551 1552 1552 1551 1551 1551
1498 1496 1500 1500 1500 1500 1504 1499 1501 1503 1506 1505 1506 1511 1502 1501 1505 1509 1511 1514 1516 1519 1522 1525 1527 1529 1532 1534 1536 1537 1539 1541 1542 1544 1545 1547 1547 1548 1549 1549 1550 1550 1549 1549
1496 1496 1498 1500 1498 1498 1499 1498 1500 1501 1503 1505 1502 1507 1500 1498 1502 1503 1507 1510 1513 1516 1519 1522 1524 1526 1529 1531 1533 1535 1536 1538 1540 1541 1543 1544 1545 1546 1547 1547 1547 1548 1548 1547
1493 1494 1495 1495 1495 1497 1498 1500 1500 1499 1499 1512 1505 1508 1506 1496 1498 1499 1502 1507 1510 1513 1516 1519 1521 1524 1526 1528 1530 1532 1533 1535 1537 1538 1540 1541 1542 1543 1544 1545 1545 1546 1546 1545
1496 1493 1493 1495 1496 1497 1497 1502 1510 1513 1511 1509 1500 1505 1502 1494 1495 1497 1500 1504 1508 1510 1513 1516 1518 1521 1523 1525 1527 1529 1530 1532 1534 1535 1537 1538 1540 1541 1541 1542 1543 1543 1544 1544
1498 1498 1490 1491 1493 1494 1494 1496 1511 1521 1515 1505 1501 1503 1494 1492 1496 1498 1500 1502 1505 1508 1510 1513 1515 1518 1520 1522 1524 1526 1528 1529 1531 1533 1534 1536 1537 1539 1540 1540 1541 1541 1542 1542
1491 1494 1486 1489 1490 1491 1494 1493 1488 1498 1502 1507 1500 1495 1491 1491 1493 1496 1498 1501 1503 1506 1508 1510 1513 1515 1517 1519 1521 1523 1524 1526 1528 1530 1531 1533 1535 1536 1537 1538 1538 1540 1539 1540
1486 1495 1487 1489 1491 1491 1489 1488 1492 1497 1514 1515 1505 1499 1495 1492 1492 1493 1495 1498 1502 1504 1506 1508 1510 1512 1514 1516 1518 1520 1522 1523 1525 1527 1529 1530 1532 1534 1535 1536 1536 1537 1537 1538
1485 1493 1490 1489 1491 1490 1493 1493 1493 1493 1496 1508 1510 1500 1482 1487 1489 1492 1494 1497 1500 1502 1504 1506 1508 1510 1512 1514 1516 1517 1519 1521 1523 1524 1526 1528 1529 1531 1532 1533 1534 1535 1535 1535
1486 1487 1491 1488 1484 1485 1485 1486 1490 1499 1502 1498 1500 1497 1481 1485 1487 1490 1493 1496 1498 1500 1502 1504 1506 1508 1509 1511 1513 1515 1516 1518 1520 1521 1523 1525 1527 1528 1530 1531 1532 1532 1533 1533
1487 1489 1498 1496 1492 1488 1487 1485 1484 1485 1489 1494 1498 1494 1482 1485 1488 1490 1493 1495 1497 1500 1501 1503 1504 1506 1507 1509 1511 1512 1514 1515 1517 1519 1521 1523 1524 1526 1527 1528 1529 1529 1530 1530
1488 1485 1490 1495 1487 1481 1486 1485 1483 1486 1488 1490 1489 1487 1483 1484 1487 1490 1492 1495 1497 1499 1500 1501 1502 1504 1505 1507 1508 1509 1511 1512 1514 1516 1518 1519 1521 1522 1524 1525 1526 1526 1527 1527
1486 1485 1483 1480 1477 1479 1480 1481 1482 1485 1483 1485 1483 1481 1481 1482 1486 1489 1492 1494 1495 1497 1498 1499 1500 1501 1503 1504 1505 1506 1508 1509 1511 1513 1515 1516 1518 1520 1521 1522 1523 1523 1524 1525
1484 1485 1483 1484 1480 1479 1481 1478 1479 1480 1479 1479 1480 1480 1478 1483 1486 1489 1490 1492 1493 1494 1496 1497 1498 1499 1500 1501 1502 1503 1504 1506 1507 1509 1512 1514 1515 1517 1518 1519 1520 1520 1521 1521
1483 1486 1488 1485 1478 1481 1485 1476 1476 1477 1475 1476 1479 1478 1479 1482 1485 1487 1488 1490 1491 1492 1494 1495 1496 1496 1497 1498 1499 1500 1501 1503 1504 1506 1508 1510 1512 1513 1515 1516 1517 1517 1518 1518
1484 1486 1483 1482 1486 1496 1475 1468 1471 1473 1473 1473 1474 1477 1480 1482 1484 1486 1487 1488 1489 1490 1491 1492 1493 1494 1494 1495 1496 1497 1498 1500 1501 1503 1504 1506 1508 1510 1511 1513 1513 1514 1515 1515
1481 1484 1483 1481 1484 1479 1471 1470 1472 1474 1474 1473 1474 1477 1479 1481 1482 1483 1485 1486 1488 1489 1490 1490 1491 1492 1492 1493 1493 1494 1496 1497 1498 1500 1501 1503 1505 1506 1508 1509 1510 1511 1511 1512
1481 1482 1482 1481 1486 1485 1472 1468 1471 1473 1475 1472 1475 1476 1478 1479 1477 1478 1482 1484 1485 1487 1487 1488 1488 1489 1490 1490 1491 1492 1493 1494 1495 1497 1498 1500 1501 1503 1504 1506 1507 1507 1508 1509
1480 1482 1481 1480 1481 1472 1468 1470 1473 1480 1476 1474 1475 1477 1478 1478 1478 1481 1481 1483 1484 1484 1485 1486 1486 1487 1487 1488 1489 1490 1490 1491 1493 1494 1495 1497 1498 1499 1501 1502 1503 1504 1505 1505
1474 1475 1478 1478 1480 1476 1470 1472 1474 1474 1475 1475 1476 1477 1478 1479 1480 1480 1481 1482 1482 1482 1483 1484 1484 1485 1485 1486 1486 1487 1488 1489 1491 1492 1493 1494 1495 1497 1498 1499 1500 1500 1501 1501
1469 1469 1468 1470 1472 1472 1473 1474 1475 1476 1476 1476 1476 1477 1478 1479 1479 1480 1481 1481 1481 1482 1482 1482 1483 1483 1483 1484 1485 1485 1486 1487 1489 1490 1490 1491 1492 1494 1495 1496 1497 1497 1497 1498
1470 1473 1471 1471 1469 1472 1473 1474 1475 1475 1475 1475 1475 1476 1477 1477 1478 1479 1480 1480 1480 1481 1481 1481 1481 1482 1482 1482 1483 1484 1484 1485 1486 1487 1488 1488 1489 1491 1492 1493 1494 1494 1495 1495
1469 1472 1470 1470 1470 1471 1472 1473 1474 1474 1474 1474 1474 1475 1475 1476 1477 1478 1478 1479 1479 1479 1479 1480 1480 1480 1480 1481 1481 1482 1483 1483 1484 1485 1485 1486 1487 1488 1488 1489 1490 1491 1491 1491
1470 1470 1470 1467 1469 1470 1469 1471 1471 1472 1472 1472 1472 1473 1473 1474 1475 1476 1477 1478 1478 1478 1478 1478 1478 1478 1479 1479 1479 1479 1480 1481 1481 1482 1483 1483 1484 1484 1485 1485 1486 1486 1487 1487